Date String (YYYY-MM-DD hh:mm:ss) UTC,Instrument flags,Ambient pressure (hPa),Sample flow (lpm),Bypass flow (lpm),Sample temperature (°C),Ambient temperature (°C),ASC tube jacket temperature (°C),LED temperature (°C),Box temperature (°C),Sample RH (%),Span deviation,Mass concentration (μg/m³),Mass concentration (μg/m³),Mass concentration (μg/m³)
DateTimeUTC,F1_M11,P_M11,Q1_M11,Q2_M11,T1_M11,T2_M11,T3_M11,T4_M11,T5_M11,U1_M11,ZSPAN_M11,X2_M11,X0_M11,X1_M11
2023-02-03 07:00:00,,0832.7,5.00,0.00,22.8,21.4,00.0,31.7,24.6,06.7,0000.0,0003.33,0005.39,0002.95
2023-02-03 07:01:00,,0832.7,5.01,0.00,22.8,21.3,00.0,31.7,24.6,06.6,0000.0,0003.31,0005.37,0002.91
2023-02-03 07:02:00,,0832.7,5.00,0.00,22.8,21.2,00.0,31.7,24.5,06.6,0000.0,0003.33,0005.46,0002.93
2023-02-03 07:03:00,,0832.7,5.00,0.00,22.8,21.2,00.0,31.7,24.5,06.6,0000.0,0003.25,0005.19,0002.84
2023-02-03 07:04:00,,0832.7,5.02,0.00,22.8,21.1,00.0,31.7,24.6,06.3,0000.0,0003.18,0005.02,0002.75
2023-02-03 07:05:00,,0832.6,4.97,0.00,22.8,21.1,00.0,31.7,24.6,06.3,0000.0,0003.16,0005.00,0002.70
2023-02-03 07:06:00,,0832.6,4.99,0.00,22.8,21.2,00.0,31.7,24.5,06.0,0000.0,0003.13,0004.99,0002.62
2023-02-03 07:07:00,,0832.6,5.01,0.00,22.8,21.2,00.0,31.7,24.6,05.9,0000.0,0003.10,0005.11,0002.51
2023-02-03 07:08:00,,0832.6,4.99,0.00,22.8,21.2,00.0,31.7,24.6,06.5,0000.0,0003.10,0005.14,0002.49
2023-02-03 07:09:00,,0832.6,5.00,0.00,22.7,21.2,00.0,31.7,24.6,06.8,0000.0,0003.05,0005.89,0002.45
2023-02-03 07:10:00,,0832.6,5.01,0.00,22.7,21.2,00.0,31.6,24.5,07.0,0000.0,0002.95,0006.69,0002.35
2023-02-03 07:11:00,,0832.6,5.01,0.00,22.7,21.2,00.0,31.6,24.5,06.7,0000.0,0002.98,0007.01,0002.35
2023-02-03 07:12:00,,0832.6,5.00,0.00,22.7,21.2,00.0,31.6,24.5,06.5,0000.0,0002.97,0007.05,0002.31
2023-02-03 07:13:00,,0832.6,5.00,0.00,22.7,21.2,00.0,31.6,24.4,06.6,0000.0,0002.94,0006.91,0002.29
2023-02-03 07:14:00,,0832.5,4.98,0.00,22.7,21.2,00.0,31.6,24.4,06.6,0000.0,0002.98,0006.98,0002.29
2023-02-03 07:15:00,,0832.6,4.99,0.00,22.7,21.2,00.0,31.6,24.5,06.7,0000.0,0003.06,0007.16,0002.34
2023-02-03 07:16:00,,0832.6,4.98,0.00,22.7,21.2,00.0,31.6,24.5,06.4,0000.0,0003.10,0007.21,0002.36
2023-02-03 07:17:00,,0832.5,5.01,0.00,22.7,21.2,00.0,31.6,24.5,05.8,0000.0,0003.05,0007.18,0002.33
2023-02-03 07:18:00,,0832.4,5.02,0.00,22.7,21.2,00.0,31.6,24.5,05.9,0000.0,0003.01,0007.02,0002.33
2023-02-03 07:19:00,,0832.4,4.99,0.00,22.7,21.2,00.0,31.6,24.4,05.5,0000.0,0002.92,0007.18,0002.23
2023-02-03 07:20:00,,0832.5,4.99,0.00,22.6,21.1,00.0,31.6,24.4,06.0,0000.0,0002.78,0006.71,0002.11
2023-02-03 07:21:00,,0832.5,5.04,0.00,22.6,21.0,00.0,31.6,24.3,06.3,0000.0,0002.62,0005.41,0002.00
2023-02-03 07:22:00,,0832.5,5.00,0.00,22.6,21.0,00.0,31.5,24.4,06.5,0000.0,0002.55,0005.02,0001.95
2023-02-03 07:23:00,,0832.4,5.00,0.00,22.6,21.0,00.0,31.5,24.4,06.3,0000.0,0002.54,0005.07,0001.93
2023-02-03 07:24:00,,0832.4,5.00,0.00,22.6,21.0,00.0,31.5,24.4,06.1,0000.0,0002.47,0005.02,0001.87
2023-02-03 07:25:00,,0832.5,5.01,0.00,22.6,20.9,00.0,31.5,24.3,06.1,0000.0,0002.39,0005.00,0001.79
2023-02-03 07:26:00,,0832.4,4.96,0.00,22.5,20.8,00.0,31.5,24.2,06.3,0000.0,0002.32,0004.82,0001.74
2023-02-03 07:27:00,,0832.4,5.01,0.00,22.5,20.8,00.0,31.5,24.3,06.0,0000.0,0002.22,0005.35,0001.69
2023-02-03 07:28:00,,0832.3,5.00,0.00,22.5,20.9,00.0,31.4,24.3,06.1,0000.0,0002.23,0005.51,0001.70
2023-02-03 07:29:00,,0832.3,5.00,0.00,22.5,20.8,00.0,31.4,24.3,06.0,0000.0,0002.21,0005.39,0001.72
2023-02-03 07:30:00,,0832.3,5.01,0.00,22.5,20.8,00.0,31.4,24.2,05.8,0000.0,0002.20,0004.94,0001.74
2023-02-03 07:31:00,,0832.3,5.01,0.00,22.4,20.8,00.0,31.4,24.2,05.6,0000.0,0002.13,0004.38,0001.69
2023-02-03 07:32:00,,0832.3,5.02,0.00,22.4,20.8,00.0,31.4,24.2,05.3,0000.0,0002.05,0004.34,0001.59
2023-02-03 07:33:00,,0832.4,5.01,0.00,22.4,20.9,00.0,31.4,24.2,05.3,0000.0,0001.90,0004.14,0001.45
2023-02-03 07:34:00,,0832.3,5.00,0.00,22.4,20.9,00.0,31.4,24.2,05.2,0000.0,0001.73,0003.77,0001.33
2023-02-03 07:35:00,,0832.3,5.00,0.00,22.4,21.0,00.0,31.4,24.2,05.3,0000.0,0001.63,0003.58,0001.24
2023-02-03 07:36:00,,0832.3,5.00,0.00,22.4,21.0,00.0,31.4,24.2,05.5,0000.0,0001.51,0003.32,0001.17
2023-02-03 07:37:00,,0832.3,5.00,0.00,22.4,20.9,00.0,31.4,24.2,05.5,0000.0,0001.40,0003.78,0001.09
2023-02-03 07:38:00,,0832.3,5.00,0.00,22.4,20.9,00.0,31.3,24.2,05.4,0000.0,0001.34,0003.20,0001.02
2023-02-03 07:39:00,,0832.4,5.02,0.00,22.4,20.9,00.0,31.3,24.2,05.4,0000.0,0001.27,0002.65,0000.96
2023-02-03 07:40:00,,0832.3,5.00,0.00,22.4,20.8,00.0,31.3,24.2,05.5,0000.0,0001.26,0002.67,0000.89
2023-02-03 07:41:00,,0832.4,5.00,0.00,22.4,20.8,00.0,31.3,24.1,05.3,0000.0,0001.24,0002.66,0000.84
2023-02-03 07:42:00,,0832.3,5.01,0.00,22.4,20.8,00.0,31.3,24.2,05.2,0000.0,0001.23,0002.69,0000.82
2023-02-03 07:43:00,,0832.3,4.99,0.00,22.4,20.8,00.0,31.3,24.2,05.2,0000.0,0001.22,0002.67,0000.82
2023-02-03 07:44:00,,0832.3,5.00,0.00,22.4,20.9,00.0,31.3,24.2,05.2,0000.0,0001.20,0002.89,0000.82
2023-02-03 07:45:00,,0832.3,5.00,0.00,22.4,20.9,00.0,31.3,24.1,05.1,0000.0,0001.17,0002.93,0000.81
2023-02-03 07:46:00,,0832.2,5.01,0.00,22.3,21.0,00.0,31.3,24.1,05.1,0000.0,0001.16,0002.92,0000.80
2023-02-03 07:47:00,,0832.3,5.01,0.00,22.3,21.0,00.0,31.3,24.0,05.2,0000.0,0001.18,0002.96,0000.77
2023-02-03 07:48:00,,0832.3,5.01,0.00,22.3,21.0,00.0,31.3,24.1,05.1,0000.0,0001.15,0002.77,0000.74
2023-02-03 07:49:00,,0832.2,5.00,0.00,22.3,21.0,00.0,31.2,24.1,05.0,0000.0,0001.13,0002.59,0000.72
2023-02-03 07:50:00,,0832.3,4.99,0.00,22.3,21.0,00.0,31.2,24.1,04.9,0000.0,0001.10,0002.54,0000.69
2023-02-03 07:51:00,,0832.2,5.01,0.00,22.3,21.0,00.0,31.3,24.1,04.9,0000.0,0001.04,0002.46,0000.67
2023-02-03 07:52:00,,0832.2,4.97,0.00,22.4,21.1,00.0,31.2,24.2,04.9,0000.0,0000.99,0002.48,0000.64
2023-02-03 07:53:00,,0832.3,4.96,0.00,22.4,21.1,00.0,31.3,24.2,04.9,0000.0,0000.96,0002.42,0000.63
2023-02-03 07:54:00,,0832.1,4.99,0.00,22.4,21.1,00.0,31.3,24.2,04.7,0000.0,0000.93,0002.34,0000.61
2023-02-03 07:55:00,,0832.1,4.99,0.00,22.4,21.1,00.0,31.3,24.2,04.4,0000.0,0000.90,0002.07,0000.58
2023-02-03 07:56:00,,0832.1,5.04,0.00,22.4,21.1,00.0,31.3,24.2,04.4,0000.0,0000.89,0001.89,0000.56
2023-02-03 07:57:00,,0832.1,5.01,0.00,22.4,21.1,00.0,31.3,24.2,04.7,0000.0,0000.90,0001.93,0000.56
2023-02-03 07:58:00,,0832.1,4.97,0.00,22.4,21.1,00.0,31.3,24.2,04.7,0000.0,0000.87,0001.86,0000.56
2023-02-03 07:59:00,,0832.1,5.01,0.00,22.4,21.1,00.0,31.3,24.2,04.8,0000.0,0000.84,0001.58,0000.54
